DB5ZQ Weather Reports


time (UTC)temp
C
wind
direction
speed
KPH
gust
KPH
rain 1hr
cm
rain 24hr
cm
rain mn
cm
humidity
%
barometer
mb
20260905191413 22 54 0.0 0.0 0.00 0.03 0.00 47 1021.0
20260905190913 22 54 0.0 0.0 0.00 0.03 0.00 46 1020.9
20260905190413 23 54 0.0 0.0 0.00 0.03 0.00 46 1020.9
20260905185912 23 54 0.0 0.0 0.00 0.03 0.00 45 1020.9
20260905185412 23 54 0.0 0.0 0.00 0.03 0.00 45 1020.9
20260905184912 23 54 0.0 0.0 0.00 0.03 0.00 45 1020.9
20260905184411 23 54 0.0 0.0 0.00 0.03 0.00 44 1020.8
20260905183911 23 54 0.0 0.0 0.00 0.03 0.00 44 1020.8
20260905183411 23 54 0.0 0.0 0.00 0.03 0.00 44 1020.8
20260905182911 23 54 0.0 4.8 0.00 0.03 0.00 43 1020.7
20260905182410 23 90 0.0 0.0 0.00 0.03 0.00 43 1020.6
20260905181910 23 90 0.0 0.0 0.00 0.03 0.00 43 1020.6
20260905181410 23 90 0.0 0.0 0.00 0.03 0.00 42 1020.5
20260905180909 23 90 0.0 3.2 0.00 0.03 0.00 42 1020.5
20260905180409 24 118 0.0 0.0 0.00 0.03 0.00 41 1020.3
20260905175909 24 118 0.0 1.6 0.00 0.03 0.00 41 1020.3
20260905175409 23 98 0.0 4.8 0.00 0.03 0.00 41 1020.2
20260905174908 24 227 0.0 6.4 0.00 0.03 0.00 41 1020.1
20260905174408 24 53 0.0 6.4 0.00 0.03 0.00 40 1020.1
20260905173908 25 37 4.8 9.7 0.00 0.03 0.00 40 1020.1
20260905173407 25 59 0.0 12.9 0.00 0.03 0.00 39 1020.1
20260905172907 25 90 0.0 4.8 0.00 0.03 0.00 39 1020.1
20260905172407 25 136 3.2 8.0 0.00 0.03 0.00 38 1020.0
20260905171907 25 8 0.0 9.7 0.00 0.03 0.00 37 1019.9
20260905171406 26 85 0.0 8.0 0.00 0.03 0.00 37 1019.9
20260905170906 26 102 1.6 6.4 0.00 0.03 0.00 36 1019.9
20260905170406 26 94 4.8 11.3 0.00 0.03 0.00 35 1019.8
20260905165905 26 119 3.2 14.5 0.00 0.03 0.00 35 1019.8
20260905165405 27 120 1.6 11.3 0.00 0.03 0.00 34 1019.8
20260905164905 27 108 0.0 9.7 0.00 0.03 0.00 34 1019.8
20260905164405 27 85 1.6 14.5 0.00 0.03 0.00 33 1019.8
20260905163904 27 67 0.0 14.5 0.00 0.03 0.00 33 1019.7
20260905163404 27 109 3.2 16.1 0.00 0.03 0.00 32 1019.7
20260905162904 28 126 6.4 11.3 0.00 0.03 0.00 32 1019.6
20260905162403 28 59 3.2 9.7 0.00 0.03 0.00 31 1019.5
20260905161903 28 98 0.0 11.3 0.00 0.03 0.00 31 1019.4
20260905161403 28 239 0.0 4.8 0.00 0.03 0.00 31 1019.3
20260905160903 28 322 1.6 17.7 0.00 0.03 0.00 30 1019.2
20260905160402 28 101 14.5 14.5 0.00 0.03 0.00 30 1019.0
20260905155902 28 142 0.0 16.1 0.00 0.03 0.00 30 1019.0
20260905155402 28 81 6.4 12.9 0.00 0.03 0.00 30 1019.0
20260905154901 29 81 8.0 9.7 0.00 0.03 0.00 30 1019.0
20260905154401 29 30 0.0 9.7 0.00 0.03 0.00 30 1019.0
20260905153901 28 97 8.0 12.9 0.00 0.03 0.00 29 1018.9
20260905153401 28 226 3.2 14.5 0.00 0.03 0.00 29 1019.0
20260905152900 28 49 3.2 11.3 0.00 0.03 0.00 29 1018.9
20260905152400 28 29 4.8 16.1 0.00 0.03 0.00 29 1018.9
20260905151900 29 77 1.6 14.5 0.00 0.03 0.00 29 1018.8
20260905151359 29 115 1.6 11.3 0.00 0.03 0.00 28 1018.7
20260905150859 29 84 8.0 12.9 0.00 0.03 0.00 29 1018.7
20260905150359 28 125 3.2 12.9 0.00 0.03 0.00 29 1018.6
20260905145859 28 11 0.0 12.9 0.00 0.03 0.00 29 1018.6
20260905145358 29 28 0.0 12.9 0.00 0.03 0.00 29 1018.6
20260905144858 28 19 4.8 12.9 0.00 0.03 0.00 29 1018.6
20260905144358 28 251 1.6 16.1 0.00 0.03 0.00 30 1018.7
20260905143857 28 358 3.2 24.1 0.00 0.03 0.00 29 1018.6
20260905143357 28 84 8.0 16.1 0.00 0.03 0.00 29 1018.6
20260905142857 28 75 0.0 16.1 0.00 0.03 0.00 30 1018.6
20260905142357 27 123 0.0 16.1 0.00 0.03 0.00 31 1018.6
20260905141856 27 80 12.9 17.7 0.00 0.03 0.00 31 1018.6
20260905141356 27 82 3.2 11.3 0.00 0.03 0.00 31 1018.5
20260905140856 27 136 1.6 19.3 0.00 0.03 0.00 32 1018.5
20260905140355 27 108 4.8 19.3 0.00 0.03 0.00 32 1018.6
20260905135855 27 82 8.0 16.1 0.00 0.03 0.00 32 1018.5
20260905135355 27 132 8.0 17.7 0.00 0.03 0.00 32 1018.5
20260905134855 27 52 3.2 16.1 0.00 0.03 0.00 33 1018.5
20260905134354 27 46 4.8 14.5 0.00 0.03 0.00 33 1018.5
20260905133854 27 226 1.6 11.3 0.00 0.03 0.00 33 1018.5
20260905133354 28 111 3.2 19.3 0.00 0.03 0.00 32 1018.6
20260905132853 27 95 8.0 14.5 0.00 0.03 0.00 32 1018.5
20260905132353 28 68 9.7 17.7 0.00 0.03 0.00 32 1018.6
20260905131853 28 92 6.4 17.7 0.00 0.03 0.00 32 1018.5
20260905131353 28 126 8.0 12.9 0.00 0.03 0.00 31 1018.5
20260905130852 28 129 9.7 19.3 0.00 0.03 0.00 31 1018.5
20260905130352 28 64 6.4 14.5 0.00 0.03 0.00 32 1018.4
20260905125852 28 115 4.8 14.5 0.00 0.03 0.00 32 1018.4
20260905125351 28 80 3.2 14.5 0.00 0.03 0.00 32 1018.4
20260905124851 28 142 8.0 16.1 0.00 0.03 0.00 33 1018.4
20260905124351 27 21 6.4 20.9 0.00 0.03 0.00 34 1018.4
20260905123851 27 43 3.2 14.5 0.00 0.03 0.00 33 1018.4
20260905123350 27 94 8.0 14.5 0.00 0.03 0.00 32 1018.4
20260905122850 28 54 6.4 14.5 0.00 0.03 0.00 31 1018.4
20260905122350 28 106 4.8 11.3 0.00 0.03 0.00 32 1018.3
20260905121849 28 90 1.6 14.5 0.00 0.03 0.00 31 1018.4
20260905121349 27 73 0.0 12.9 0.00 0.03 0.00 33 1018.3
20260905120849 26 158 1.6 14.5 0.00 0.03 0.00 35 1018.3
20260905120349 26 106 11.3 14.5 0.00 0.03 0.00 36 1018.3
20260905115848 26 80 9.7 14.5 0.00 0.03 0.00 37 1018.3
20260905115348 25 56 1.6 11.3 0.00 0.03 0.00 38 1018.3
20260905114848 25 50 3.2 11.3 0.00 0.03 0.00 39 1018.2
20260905114348 25 52 3.2 22.5 0.00 0.03 0.00 39 1018.3
20260905113848 25 355 3.2 14.5 0.00 0.03 0.00 39 1018.2
20260905113347 25 81 8.0 12.9 0.00 0.03 0.00 40 1018.3
20260905112847 25 296 1.6 9.7 0.00 0.03 0.00 43 1018.2
20260905112346 24 101 3.2 11.3 0.00 0.03 0.00 43 1018.3
20260905111846 24 104 6.4 8.0 0.00 0.03 0.00 43 1018.3
20260905111346 24 33 1.6 9.7 0.00 0.03 0.00 42 1018.2
20260905110846 24 292 1.6 8.0 0.00 0.03 0.00 44 1018.3
20260905110345 23 75 3.2 16.1 0.00 0.03 0.00 44 1018.3
20260905105845 23 112 3.2 16.1 0.00 0.03 0.00 45 1018.3
20260905105345 23 109 3.2 12.9 0.00 0.03 0.00 45 1018.4
20260905104844 23 67 1.6 8.0 0.00 0.03 0.00 44 1018.3
20260905104344 24 112 3.2 14.5 0.00 0.03 0.00 43 1018.4
20260905103844 24 46 4.8 16.1 0.00 0.03 0.00 43 1018.3
20260905103344 23 247 1.6 12.9 0.00 0.03 0.00 45 1018.3
20260905102843 22 45 1.6 14.5 0.00 0.03 0.00 45 1018.4
20260905102343 22 358 3.2 14.5 0.00 0.03 0.00 47 1018.4
20260905101843 22 56 8.0 16.1 0.00 0.03 0.00 46 1018.4
20260905101342 22 109 4.8 16.1 0.00 0.03 0.00 47 1018.5
20260905100842 22 74 11.3 19.3 0.00 0.03 0.00 48 1018.5
20260905100342 22 105 9.7 12.9 0.00 0.03 0.00 50 1018.5
20260905095842 22 39 4.8 19.3 0.00 0.03 0.00 50 1018.3
20260905095341 22 30 6.4 12.9 0.00 0.03 0.00 51 1018.4
20260905094841 21 52 1.6 12.9 0.00 0.03 0.00 51 1018.3
20260905094341 21 99 9.7 16.1 0.00 0.03 0.00 50 1018.3
20260905093840 21 334 4.8 12.9 0.00 0.03 0.00 51 1018.4
20260905093340 21 327 0.0 19.3 0.00 0.03 0.00 51 1018.4
20260905092840 21 67 4.8 20.9 0.00 0.03 0.00 51 1018.5
20260905092340 21 81 9.7 12.9 0.00 0.03 0.00 51 1018.4
20260905091839 21 84 3.2 14.5 0.00 0.03 0.00 51 1018.3
20260905091339 21 56 6.4 14.5 0.00 0.03 0.00 52 1018.3
20260905090839 21 73 6.4 19.3 0.00 0.03 0.00 52 1018.2
20260905090338 21 49 4.8 11.3 0.00 0.03 0.00 55 1018.2
20260905085838 21 59 6.4 9.7 0.00 0.03 0.00 55 1018.1
20260905085338 21 104 0.0 11.3 0.00 0.03 0.00 57 1018.1
20260905084838 21 302 3.2 11.3 0.00 0.03 0.00 57 1018.1
20260905084337 20 50 3.2 14.5 0.00 0.03 0.00 59 1018.0
20260905083837 20 32 0.0 14.5 0.00 0.03 0.00 60 1018.0
20260905083337 20 101 6.4 11.3 0.00 0.03 0.00 60 1018.0
20260905082837 20 59 3.2 12.9 0.00 0.03 0.00 60 1017.9
20260905082336 20 53 1.6 11.3 0.00 0.03 0.00 61 1017.8
20260905081836 20 92 3.2 12.9 0.00 0.03 0.00 61 1017.7
20260905081336 20 85 6.4 12.9 0.00 0.03 0.00 64 1017.7
20260905080835 20 125 8.0 14.5 0.00 0.03 0.00 64 1017.8
20260905080335 20 52 0.0 12.9 0.00 0.03 0.00 66 1017.6
20260905075835 20 113 8.0 8.0 0.00 0.03 0.00 66 1017.5
20260905075335 20 73 4.8 8.0 0.00 0.03 0.00 66 1017.5
20260905074834 20 85 3.2 12.9 0.00 0.03 0.00 67 1017.5
20260905074334 20 111 8.0 14.5 0.00 0.03 0.00 67 1017.5
20260905073834 20 87 6.4 8.0 0.00 0.03 0.00 68 1017.4
20260905073333 20 105 8.0 14.5 0.00 0.03 0.00 68 1017.4
20260905072833 20 133 9.7 9.7 0.00 0.03 0.00 69 1017.3
20260905072333 19 71 3.2 8.0 0.00 0.03 0.00 70 1017.1
20260905071832 19 1 1.6 9.7 0.00 0.03 0.00 70 1017.1
20260905071332 19 66 3.2 8.0 0.00 0.03 0.00 70 1017.1
20260905070832 19 144 3.2 9.7 0.00 0.03 0.00 71 1017.1
20260905070332 19 53 0.0 6.4 0.00 0.03 0.00 71 1017.0
20260905065831 19 25 1.6 8.0 0.00 0.03 0.00 72 1016.9
20260905065331 19 37 1.6 8.0 0.00 0.03 0.00 71 1017.0
20260905064831 19 85 0.0 4.8 0.00 0.03 0.00 72 1016.9
20260905064331 19 119 0.0 4.8 0.00 0.03 0.00 73 1016.9
20260905063830 19 111 0.0 6.4 0.00 0.03 0.00 73 1016.7
20260905063330 19 106 0.0 8.0 0.00 0.03 0.00 74 1016.7
20260905062830 19 90 1.6 4.8 0.00 0.03 0.00 74 1016.6
20260905062329 18 25 0.0 4.8 0.00 0.03 0.00 75 1016.6
20260905061829 18 66 0.0 0.0 0.00 0.03 0.00 77 1016.5
20260905061329 18 66 0.0 0.0 0.00 0.03 0.00 77 1016.5
20260905060829 18 66 0.0 0.0 0.00 0.03 0.00 77 1016.6
20260905060328 18 66 0.0 0.0 0.00 0.03 0.00 77 1016.4
20260905055828 18 66 0.0 0.0 0.00 0.03 0.00 77 1016.4
20260905055328 18 66 0.0 0.0 0.00 0.03 0.00 77 1016.4
20260905054827 18 66 0.0 0.0 0.00 0.03 0.00 78 1016.3
20260905054327 18 66 0.0 0.0 0.00 0.03 0.00 78 1016.2
20260905053827 18 66 0.0 0.0 0.00 0.03 0.00 78 1016.2
20260905053327 18 66 0.0 0.0 0.00 0.03 0.00 78 1016.0
20260905052826 18 66 0.0 0.0 0.00 0.03 0.00 79 1015.9
20260905052326 18 66 0.0 0.0 0.00 0.03 0.00 79 1016.0
20260905051826 18 66 0.0 0.0 0.00 0.03 0.00 79 1015.9
20260905051325 18 66 0.0 1.6 0.00 0.03 0.00 78 1015.8
20260905050825 18 66 0.0 4.8 0.00 0.03 0.00 78 1015.7
20260905050325 18 22 0.0 0.0 0.00 0.03 0.00 78 1015.5
20260905045825 18 22 0.0 4.8 0.00 0.03 0.00 78 1015.4
20260905045324 18 5 0.0 3.2 0.00 0.03 0.00 78 1015.2
20260905044824 18 98 0.0 3.2 0.00 0.03 0.00 78 1015.2
20260905044324 18 40 0.0 1.6 0.00 0.03 0.00 78 1015.2
20260905043823 18 46 1.6 3.2 0.00 0.03 0.00 78 1015.1
20260905043323 18 50 0.0 0.0 0.00 0.03 0.00 78 1015.2
20260905042823 18 50 0.0 0.0 0.00 0.03 0.00 78 1015.1
20260905042323 18 50 0.0 0.0 0.00 0.03 0.00 79 1015.0
20260905041822 18 50 0.0 0.0 0.00 0.03 0.00 79 1015.1
20260905041322 18 50 0.0 0.0 0.00 0.03 0.00 79 1015.0
20260905040822 18 50 0.0 0.0 0.00 0.03 0.00 79 1015.1
20260905040321 18 50 0.0 0.0 0.00 0.03 0.00 79 1015.1
20260905035821 18 50 0.0 0.0 0.00 0.03 0.00 78 1015.0
20260905035321 18 50 0.0 0.0 0.00 0.03 0.00 78 1014.9
20260905034821 18 50 0.0 0.0 0.00 0.03 0.00 78 1014.9
20260905034320 18 50 0.0 0.0 0.00 0.03 0.00 78 1014.9
20260905033820 18 50 0.0 0.0 0.00 0.03 0.00 78 1014.8
20260905033320 19 50 0.0 0.0 0.00 0.03 0.00 77 1014.7
20260905032819 19 50 0.0 0.0 0.00 0.03 0.00 77 1014.7
20260905032319 19 50 0.0 0.0 0.00 0.03 0.00 77 1014.6
20260905031819 19 50 0.0 0.0 0.00 0.03 0.00 77 1014.6
20260905031319 19 50 0.0 0.0 0.00 0.03 0.00 77 1014.5
20260905030818 19 50 0.0 0.0 0.00 0.03 0.00 77 1014.6
20260905030318 19 50 0.0 0.0 0.00 0.03 0.00 77 1014.6
20260905025818 19 50 0.0 0.0 0.00 0.03 0.00 77 1014.5
20260905025317 19 50 0.0 0.0 0.00 0.03 0.00 77 1014.4
20260905024817 19 50 0.0 0.0 0.00 0.03 0.00 77 1014.5
20260905024317 19 50 0.0 0.0 0.00 0.03 0.00 76 1014.5
20260905023817 19 50 0.0 0.0 0.00 0.03 0.00 76 1014.4
20260905023316 19 1 0.0 0.0 0.00 0.03 0.00 76 1014.4
20260905022816 19 1 0.0 0.0 0.00 0.03 0.00 76 1014.3
20260905022316 19 1 0.0 0.0 0.00 0.03 0.00 76 1014.2
20260905021815 19 1 0.0 1.6 0.00 0.03 0.00 76 1014.3
20260905021315 19 319 0.0 0.0 0.00 0.03 0.00 76 1014.2
20260905020815 19 319 0.0 0.0 0.00 0.03 0.00 76 1014.3
20260905020315 19 319 0.0 1.6 0.00 0.03 0.00 76 1014.3
20260905015814 19 319 0.0 1.6 0.00 0.03 0.00 77 1014.3
20260905015314 19 312 0.0 3.2 0.00 0.03 0.00 77 1014.1
20260905014814 19 23 0.0 4.8 0.00 0.03 0.00 77 1014.1
20260905014313 19 46 0.0 3.2 0.00 0.03 0.00 77 1014.1
20260905013813 20 355 0.0 3.2 0.00 0.03 0.00 77 1014.0
20260905013313 20 309 0.0 3.2 0.00 0.03 0.00 77 1013.9
20260905012813 20 258 0.0 1.6 0.00 0.03 0.00 77 1013.8
20260905012312 19 348 0.0 0.0 0.00 0.03 0.00 77 1013.9
20260905011812 19 348 0.0 0.0 0.00 0.03 0.00 78 1014.1
20260905011312 19 348 0.0 0.0 0.00 0.03 0.00 78 1014.0
20260905010812 19 348 0.0 4.8 0.00 0.03 0.00 78 1014.1
20260905010311 19 341 3.2 4.8 0.00 0.03 0.00 77 1014.1
20260905005811 19 345 0.0 6.4 0.00 0.03 0.00 77 1014.0
20260905005311 19 284 0.0 3.2 0.00 0.03 0.00 77 1013.8
20260905004810 19 336 0.0 1.6 0.00 0.03 0.00 76 1013.9
20260905004310 20 12 0.0 4.8 0.00 0.03 0.00 76 1014.0
20260905003810 20 322 0.0 4.8 0.00 0.03 0.00 76 1013.9
20260905003310 20 28 0.0 0.0 0.00 0.03 0.00 75 1013.9
20260905002809 20 327 0.0 3.2 0.00 0.03 0.00 75 1013.9
20260905002309 20 56 0.0 0.0 0.00 0.03 0.00 74 1013.7
20260905001809 20 56 0.0 3.2 0.00 0.03 0.00 75 1013.8
20260905001308 20 331 0.0 3.2 0.00 0.03 0.00 74 1013.9
20260905000808 20 9 0.0 1.6 0.00 0.03 0.00 74 1013.9
20260905000310 20 309 0.0 0.0 0.00 0.03 0.00 74 1013.7
20260904235808 20 309 0.0 0.0 0.00 0.03 0.00 74 1013.7
20260904235307 20 309 0.0 1.6 0.00 0.03 0.00 74 1013.6
20260904234807 20 324 0.0 4.8 0.00 0.03 0.00 74 1013.6
20260904234307 20 326 4.8 6.4 0.00 0.03 0.00 73 1013.5
20260904233806 20 15 1.6 3.2 0.00 0.03 0.00 73 1013.8
20260904233306 20 312 1.6 1.6 0.00 0.03 0.00 72 1013.8
20260904232806 20 91 0.0 4.8 0.00 0.03 0.00 72 1013.9
20260904232307 20 165 0.0 0.0 0.00 0.03 0.00 72 1013.7
20260904231805 20 165 0.0 0.0 0.00 0.03 0.00 72 1013.4
20260904231305 20 305 0.0 6.4 0.00 0.03 0.00 72 1013.2
20260904230805 20 307 1.6 3.2 0.00 0.03 0.00 71 1013.1
20260904230304 20 330 0.0 0.0 0.00 0.03 0.00 71 1013.1
20260904225804 20 330 0.0 1.6 0.00 0.03 0.00 71 1013.0
20260904225306 20 351 0.0 1.6 0.00 0.03 0.00 71 1013.2
20260904224804 20 299 0.0 0.0 0.00 0.03 0.00 70 1013.4
20260904224303 20 347 0.0 1.6 0.00 0.03 0.00 70 1013.3
20260904223803 20 275 0.0 1.6 0.00 0.03 0.00 70 1013.3
20260904223303 20 168 0.0 0.0 0.00 0.03 0.00 70 1013.5
20260904222802 20 164 0.0 0.0 0.00 0.03 0.00 70 1013.5
20260904222305 20 233 0.0 0.0 0.00 0.03 0.00 69 1013.3
20260904221802 20 16 0.0 0.0 0.00 0.03 0.00 69 1013.2
20260904221302 21 16 0.0 1.6 0.00 0.03 0.00 69 1013.4
20260904220801 21 4 0.0 1.6 0.00 0.03 0.00 69 1013.2
20260904220301 21 286 0.0 0.0 0.03 0.03 0.00 69 1013.3
20260904215801 21 286 0.0 0.0 0.03 0.03 0.00 69 1013.0
20260904215300 21 286 0.0 0.0 0.03 0.03 0.00 69 1012.9
20260904214800 21 286 0.0 1.6 0.03 0.03 0.00 69 1012.8
20260904214300 21 257 1.6 1.6 0.03 0.03 0.00 68 1013.1
20260904213800 21 191 0.0 0.0 0.03 0.03 0.00 68 1012.9
20260904213259 21 191 0.0 3.2 0.03 0.03 0.00 69 1013.0
20260904212759 21 225 0.0 1.6 0.03 0.03 0.03 69 1013.0
20260904212259 20 338 0.0 0.0 0.03 0.03 0.03 70 1012.9
20260904211758 20 338 0.0 3.2 0.03 0.03 0.03 69 1013.1
20260904211258 20 127 0.0 6.4 0.03 0.03 0.03 69 1013.0
20260904210758 20 21 0.0 4.8 0.03 0.03 0.03 69 1012.8
20260904210258 20 70 1.6 8.0 0.00 0.00 0.00 69 1012.8
20260904205757 20 40 0.0 14.5 0.00 0.00 0.00 69 1012.9
20260904205257 20 22 4.8 22.5 0.00 0.00 0.00 70 1012.8
20260904204757 20 108 11.3 24.1 0.00 0.00 0.00 70 1012.5
20260904204256 21 54 4.8 22.5 0.00 0.00 0.00 69 1012.8
20260904203756 21 88 4.8 17.7 0.00 0.00 0.00 70 1012.6
20260904203256 21 102 8.0 29.0 0.00 0.00 0.00 71 1012.3
20260904202756 21 32 24.1 29.0 0.00 0.00 0.00 71 1012.1
20260904202255 21 358 3.2 24.1 0.00 0.00 0.00 70 1012.2
20260904201755 22 40 11.3 20.9 0.00 0.00 0.00 68 1012.1
20260904201255 22 85 20.9 38.6 0.00 0.00 0.00 65 1012.0
20260904200754 22 246 11.3 24.1 0.00 0.00 0.00 65 1011.7
20260904200254 22 112 3.2 17.7 0.00 0.00 0.00 64 1011.6
20260904195754 23 50 12.9 17.7 0.00 0.00 0.00 63 1011.6
20260904195254 23 70 11.3 40.2 0.00 0.00 0.00 62 1011.5
20260904194753 23 142 1.6 24.1 0.00 0.00 0.00 61 1011.4
20260904194253 24 70 8.0 14.5 0.00 0.00 0.00 61 1011.2
20260904193753 24 32 4.8 24.1 0.00 0.00 0.00 60 1011.0
20260904193253 24 43 3.2 33.8 0.00 0.00 0.00 60 1010.8
20260904192752 25 101 9.7 24.1 0.00 0.00 0.00 58 1010.8
20260904192252 25 137 12.9 17.7 0.00 0.00 0.00 56 1010.5
20260904191752 26 104 12.9 27.4 0.00 0.00 0.00 53 1010.3